Regional Weather Roundup
Issued by NWS

Home | Current Version | Previous Version | Text Only | Print | Product List | Glossary On
Versions: 1 2 3 4 5 6 7 8 9 10 11 12 13 14 15 16 17 18 19 20 21 22 23 24 25 26 27 28 29 30 31 32 33 34 35 36 37 38 39 40 41 42 43 44 45 46 47 48 49 50
000
ASUS43 KOAX 281010
RWRNE

WEATHER ROUNDUP FOR NEBRASKA
NATIONAL WEATHER SERVICE OMAHA NE
500 AM CDT MON JUL 28 2014

NOTES: SATELLITE DATA IS BEING USED TO AUGMENT CLOUD COVER ABOVE
       12000 FEET.
       "FAIR" INDICATES FEW OR NO CLOUDS BELOW 12,000 FEET WITH NO
       SIGNIFICANT WEATHER AND/OR OBSTRUCTIONS TO VISIBILITY.

  * THESE STATIONS DO NOT REPORT WEATHER SUCH AS RAIN...SNOW OR FOG.

NEZ001>004-019>022-054>056-281100-
NEBRASKA PANHANDLE

CITY           SKY/WX    TMP DP  RH WIND       PRES   REMARKS
SCOTTSBLUFF    CLEAR     61  50  67 E10       30.32S
ALLIANCE       CLEAR     54  48  80 E5        30.34S
CHADRON        CLEAR     57  51  80 N3        30.34S
KIMBALL        CLEAR     62  49  63 SE6       30.34S
SIDNEY         CLEAR     59  48  67 SE8       30.35S
$$

NEZ057>060-069>072-079>082-281100-
SOUTHWEST NEBRASKA

CITY           SKY/WX    TMP DP  RH WIND       PRES   REMARKS
NORTH PLATTE   CLEAR     52  49  89 CALM      30.32R
IMPERIAL       PTCLDY    57  50  77 CALM      30.32S
LEXINGTON      CLEAR     55  53  92 CALM      30.31S
MCCOOK         PTCLDY    59  54  83 NE5       30.30R
OGALLALA       CLEAR     53  49  84 CALM      30.32F
$$

NEZ005>010-023>029-035>040-094-281100-
NORTH CENTRAL NEBRASKA

CITY           SKY/WX    TMP DP  RH WIND       PRES   REMARKS
VALENTINE      PTCLDY    52  49  89 NW3       30.34R
AINSWORTH      CLEAR     53  52  97 CALM      30.33S
BROKEN BOW     CLEAR     54  51  90 N3        30.31R
O`NEILL        CLEAR     54  50  88 NW6       30.30S
ORD            CLEAR     53  51  93 N3        30.29S
THEDFORD       CLEAR     53  51  93 CALM      30.34S
$$

NEZ041-046>049-061>064-073>077-083>087-281100-
SOUTH CENTRAL NEBRASKA

CITY           SKY/WX    TMP DP  RH WIND       PRES   REMARKS
GRAND ISLAND   CLEAR     58  55  90 N6        30.28S
AURORA         CLEAR     57  57 100 N7        30.27S
HASTINGS       CLEAR     58  54  86 N5        30.28R
HEBRON         CLEAR     60  55  83 CALM      30.25S
HOLDREGE       CLEAR     57  55  92 CALM      30.30R
KEARNEY *      CLEAR     55  54  94 MISG      30.30R
YORK             N/A     55  55 100 N5        30.26F
$$

NEZ011>018-030>034-042>045-281100-
NORTHEAST NEBRASKA

CITY           SKY/WX    TMP DP  RH WIND       PRES   REMARKS
NORFOLK        CLEAR     55  52  89 N6        30.25F
ALBION         CLEAR     55  52  88 CALM      30.28S
BLAIR          PTCLDY    59  55  84 N8        30.22R
COLUMBUS *     CLEAR     57  52  82 W7        30.26S
FREMONT        CLEAR     59  56  89 N3        30.23S
WAYNE          PTCLDY    56  55  94 CALM      30.26R
$$

NEZ050>053-065>068-078-088>093-281100-
SOUTHEAST NEBRASKA

CITY           SKY/WX    TMP DP  RH WIND       PRES   REMARKS
LINCOLN        CLEAR     61  54  77 NW6       30.24S
OMAHA EPPLEY   CLEAR     58  54  86 N6        30.22R
BEATRICE       CLEAR     56  55  95 N6        30.23S
NEBRASKA CITY  CLEAR     57  57  99 NW5       30.22R
PLATTSMOUTH    CLEAR     58  54  88 NW6       30.21S
$$

NEZ044-045-051>053-067-281100-
OMAHA AREA

CITY           SKY/WX    TMP DP  RH WIND       PRES   REMARKS
OMAHA EPPLEY   CLEAR     58  54  86 N6        30.22R
BLAIR          PTCLDY    59  55  84 N8        30.22R
FREMONT        CLEAR     59  56  89 N3        30.23S
MILLARD        CLEAR     62  56  81 NW6       30.21S
OFFUTT AFB     CLEAR     61  59  91 NW5       30.20R
PLATTSMOUTH    CLEAR     58  54  88 NW6       30.21S
WAHOO          FAIR      58  54  89 NW6       30.23S
$$


USA.gov is the U.S. government's official web portal to all federal, state and local government web resources and services.